DW6228 Weather Reports


time (UTC)temp
C
wind
direction
speed
KPH
gust
KPH
rain 1hr
cm
rain 24hr
cm
rain mn
cm
humidity
%
barometer
mb
20260505163252 9 201 0.0 0.0 0.00 0.51 0.00 97 1019.8
20260505162229 10 189 0.0 8.0 0.00 0.51 0.00 97 1020.0
20260505161157 9 176 0.0 0.0 0.00 0.51 0.00 97 1020.0
20260505160221 9 277 0.0 4.8 0.00 0.51 0.00 97 1020.0
20260505153057 10 258 0.0 0.0 0.00 0.56 0.00 97 1020.4
20260505152104 10 224 0.0 1.6 0.00 0.56 0.00 97 1020.4
20260505151057 10 291 0.0 4.8 0.00 0.74 0.00 97 1020.5
20260505124844 10 109 0.0 1.6 0.00 1.02 0.81 97 1021.5
20260505122730 10 194 0.0 1.6 0.00 1.52 0.81 97 1021.6
20260505120549 10 189 0.0 0.0 0.00 1.78 0.81 97 1021.8
20260505115546 10 296 0.0 0.0 0.00 1.85 0.81 96 1021.8
20260505114523 10 225 0.0 0.0 0.00 1.88 0.81 97 1021.8
20260505112419 10 263 0.0 0.0 0.00 1.88 0.81 96 1021.7
20260505111421 10 245 0.0 0.0 0.00 1.88 0.81 96 1021.7
20260505110424 10 282 0.0 0.0 0.00 1.88 0.81 96 1021.8
20260505101223 10 334 0.0 0.0 0.00 1.96 0.81 96 1021.8
20260505100153 10 74 0.0 0.0 0.00 1.96 0.79 96 1021.8
20260505095121 10 306 0.0 0.0 0.00 1.96 0.79 96 1021.8
20260505093012 10 303 0.0 0.0 0.00 2.24 0.79 96 1021.8
20260505092027 10 314 0.0 0.0 0.00 2.26 0.79 96 1021.8
20260505091002 10 19 0.0 3.2 0.00 2.29 0.79 95 1021.8
20260505090012 10 26 0.0 3.2 0.00 2.26 0.76 95 1021.8
20260505083852 10 320 0.0 3.2 0.00 2.29 0.76 95 1021.8
20260505082907 10 314 0.0 3.2 0.00 2.44 0.74 95 1021.7
20260505081931 10 333 0.0 4.8 0.00 2.84 0.74 94 1021.6
20260505080917 10 342 0.0 3.2 0.00 2.87 0.74 94 1021.6
20260505075926 10 336 0.0 0.0 0.00 2.87 0.74 94 1021.5
20260505074942 10 308 0.0 1.6 0.00 3.00 0.74 93 1021.4
20260505074001 10 299 0.0 4.8 0.00 3.00 0.74 93 1021.3
20260505072958 10 12 0.0 0.0 0.00 3.05 0.74 93 1021.2
20260505072018 10 353 0.0 0.0 0.00 3.10 0.74 93 1021.1
20260505070944 10 327 0.0 0.0 0.00 3.17 0.74 93 1021.0
20260505065944 10 304 0.0 0.0 0.00 3.20 0.74 92 1021.0
20260505064944 10 302 0.0 0.0 0.00 3.20 0.74 92 1021.0
20260505063932 10 300 0.0 0.0 0.00 3.23 0.74 91 1020.8
20260505062953 11 327 0.0 0.0 0.00 3.25 0.74 91 1020.7
20260505061935 11 287 0.0 1.6 0.00 3.25 0.74 90 1020.6
20260505060914 11 322 0.0 1.6 0.00 3.25 0.74 90 1020.6
20260505055923 11 36 0.0 0.0 0.00 3.25 0.74 90 1020.6
20260505054940 11 0 0.0 3.2 0.00 3.25 0.74 90 1020.4
20260505054002 11 29 0.0 0.0 0.00 3.28 0.74 89 1020.3
20260505052936 11 304 0.0 3.2 0.00 3.28 0.74 89 1020.2
20260505051948 11 323 0.0 1.6 0.00 3.30 0.74 88 1020.0
20260505050926 11 308 0.0 1.6 0.00 3.30 0.74 88 1020.0
20260505041752 11 74 0.0 1.6 0.00 3.38 0.74 91 1019.7
20260505040740 11 334 0.0 9.7 0.00 3.38 0.74 92 1019.6
20260505035724 11 313 0.0 3.2 0.00 3.38 0.74 93 1019.6
20260505034726 11 313 0.0 8.0 0.00 3.38 0.74 93 1019.5
20260505033735 11 265 0.0 0.0 0.00 3.38 0.74 94 1019.5
20260505032709 11 296 0.0 9.7 0.00 3.38 0.74 94 1019.5
20260505030605 11 241 0.0 0.0 0.00 3.38 0.74 96 1019.6
20260505025612 11 4 0.0 8.0 0.00 3.38 0.74 96 1019.5
20260505024637 11 252 0.0 6.4 0.00 3.38 0.74 96 1019.7
20260505023631 11 357 0.0 6.4 0.00 3.38 0.74 96 1019.7
20260505022622 11 308 0.0 6.4 0.00 3.38 0.74 96 1019.8
20260505021605 11 20 0.0 1.6 0.00 3.38 0.74 97 1019.8
20260505020545 11 92 0.0 4.8 0.00 3.38 0.74 96 1019.8
20260505015603 11 50 0.0 3.2 0.00 3.38 0.74 97 1019.7
20260505014622 11 204 0.0 4.8 0.00 3.38 0.74 97 1019.9
20260505013615 11 298 0.0 3.2 0.00 3.38 0.74 97 1020.0
20260505012630 11 343 0.0 0.0 0.00 3.38 0.74 97 1020.0
20260505011602 11 210 0.0 1.6 0.00 3.38 0.74 97 1020.0
20260505010542 10 282 0.0 3.2 0.00 3.38 0.74 97 1020.0
20260505005543 11 270 0.0 0.0 0.00 3.38 0.74 97 1019.9
20260505004542 11 356 0.0 0.0 0.00 3.38 0.74 98 1019.8
20260505003555 10 210 0.0 0.0 0.00 3.38 0.74 97 1019.7
20260505002600 10 5 0.0 3.2 0.00 3.35 0.71 98 1019.5
20260505001614 10 19 0.0 1.6 0.00 3.35 0.71 98 1019.4
20260504235523 10 344 0.0 0.0 0.00 3.35 0.71 97 1019.4
20260504234529 10 325 0.0 0.0 0.00 3.35 0.71 98 1019.4
20260504232401 10 47 0.0 0.0 0.00 3.35 0.71 98 1019.4
20260504231329 9 24 0.0 0.0 0.00 3.35 0.71 98 1019.2
20260504230316 9 41 0.0 0.0 0.00 3.35 0.71 98 1019.1
20260504224145 8 41 0.0 0.0 0.00 3.35 0.71 98 1019.0
20260504223133 8 60 0.0 0.0 0.00 3.35 0.71 98 1018.8
20260504221000 8 315 0.0 0.0 0.00 3.33 0.69 98 1018.6
20260504220009 8 327 0.0 0.0 0.00 3.33 0.69 98 1018.3
20260504213808 8 278 0.0 0.0 0.00 3.33 0.69 98 1017.9
20260504211639 8 299 0.0 0.0 0.00 3.33 0.69 98 1017.4
20260504205510 9 41 0.0 0.0 0.00 3.33 0.69 98 1017.1
20260504204505 9 288 0.0 0.0 0.00 3.33 0.69 98 1016.8
20260504202305 9 316 0.0 0.0 0.00 3.30 0.66 98 1016.4
20260504200134 9 332 0.0 11.3 0.10 3.28 0.64 98 1016.2
20260504193940 9 293 0.0 0.0 0.00 3.25 0.61 98 1015.9
20260504192921 9 315 0.0 0.0 0.00 3.23 0.58 97 1015.9
20260504191925 9 329 0.0 0.0 0.10 3.23 0.58 97 1015.8
20260504190942 9 317 0.0 0.0 0.10 3.20 0.58 98 1015.7
20260504190001 9 298 0.0 0.0 0.00 3.17 0.56 97 1015.6
20260504184949 9 76 0.0 0.0 0.10 3.17 0.56 98 1015.5
20260504183941 9 62 0.0 1.6 0.38 3.17 0.53 98 1015.3
20260504182950 9 330 0.0 4.8 0.18 3.12 0.48 97 1015.1
20260504181942 10 235 0.0 6.4 0.00 3.10 0.46 97 1015.0
20260504180943 10 26 0.0 1.6 0.08 3.07 0.43 97 1014.9
20260504175932 10 221 0.0 4.8 0.08 3.07 0.43 97 1014.9
20260504173843 10 318 0.0 0.0 0.00 3.02 0.38 97 1014.8
20260504172842 10 173 0.0 3.2 0.00 3.02 0.38 97 1014.7
20260504171817 10 143 0.0 0.0 0.00 3.00 0.36 97 1014.6
20260504170825 10 321 0.0 0.0 0.00 3.00 0.36 97 1014.5